T Black Aviation
T Black Aviation Training School
T Black Aviation Cessna Pilot Center
Visit our pilot shop!

We Give All FAA, FCC, and NCATT Written Exams

Accelerated Aviation Academics®

Distance Learning A&P Course Now Available!

Aircraft Electronics Technician (AET) Logo

National Center for Aerospace & Transportation Technologies (NCATT)

One week course

T Black Aviation guarantees that if you fail any of the written tests, after completing our course, you may return to our school, up to ten years from the date of the initial course, for additional training (sit in on the current course) until you receive your designated rating.

CATS Testing Center at T Black Aviation

Current METAR for KPIE

KPIE 032253Z 24012KT 10SM SCT023 27/22 A2989 RMK AO2 SLP120 T02720217

Coming Soon to T Black Aviation